• MPC Preparation (Info)

  • MPEC 2014-J65 : 2014 JX24

    The following Minor Planet Electronic Circular may be linked-to from your own Web pages, but must not otherwise be redistributed electronically.

    A form allowing access to any MPEC is at the bottom of this page.


    Read MPEC 2014-J64 Read MPEC 2014-J66


    M.P.E.C. 2014-J65                                Issued 2014 May 7, 23:15 UT
    
         The Minor Planet Electronic Circulars contain information on unusual
             minor planets and routine data on comets.  They are published
       on behalf of Commission 20 of the International Astronomical Union by the
              Minor Planet Center, Smithsonian Astrophysical Observatory,
                              Cambridge, MA 02138, U.S.A.
    
                 Prepared using the Tamkin Foundation Computer Network
    
                                  MPC@CFA.HARVARD.EDU
                URL https://www.minorplanetcenter.net/    ISSN 1523-6714
    
                                       2014 JX24
    
    Observations:
         K14J24X* C2014 05 06.35597 14 58 09.26 +09 41 38.1          19.6 VqEJ065G96
         K14J24X  C2014 05 06.35623 14 58 09.98 +09 41 45.2          20.2 VqEJ065G96
         K14J24X  C2014 05 06.35650 14 58 10.51 +09 41 50.5          20.0 VqEJ065G96
         K14J24X  C2014 05 06.35677 14 58 11.13 +09 41 56.9          19.7 VqEJ065G96
         K14J24X  C2014 05 06.38948 14 59 26.99 +09 54 52.2          19.6 VqEJ065G96
         K14J24X  C2014 05 06.38974 14 59 27.63 +09 54 58.2          19.7 VqEJ065G96
         K14J24X  C2014 05 06.40987 15 00 14.19 +10 02 50.2          20.3 VqEJ065G96
         K14J24X  C2014 05 06.41013 15 00 14.85 +10 02 56.5          20.2 VqEJ065G96
         K14J24X  C2014 05 06.41040 15 00 15.44 +10 03 02.5          20.1 VqEJ065G96
         K14J24X  C2014 05 06.41067 15 00 16.06 +10 03 09.4          19.6 VqEJ065G96
         K14J24X  C2014 05 06.42944 15 00 59.50 +10 10 26.0          19.0 VqEJ065G96
         K14J24X  C2014 05 06.42970 15 01 00.21 +10 10 31.3          20.1 VqEJ065G96
         K14J24X  C2014 05 06.42997 15 01 00.79 +10 10 37.7          20.0 VqEJ065G96
         K14J24X  C2014 05 06.43172 15 01 04.84 +10 11 17.5          20.0 VqEJ065G96
         K14J24X  C2014 05 06.43592 15 01 14.56 +10 12 54.9          19.9 VqEJ065G96
         K14J24X  C2014 05 06.44012 15 01 24.27 +10 14 31.3          19.6 VqEJ065G96
         K14J24X  C2014 05 06.44433 15 01 34.08 +10 16 08.1          19.8 VqEJ065G96
         K14J24X  C2014 05 07.34043 15 34 18.79 +15 16 42.0          20.3 VqEJ065G96
         K14J24X  C2014 05 07.34110 15 34 20.06 +15 16 53.6          20.3 VqEJ065G96
         K14J24X  C2014 05 07.34179 15 34 21.28 +15 17 05.2          20.2 VqEJ065G96
         K14J24X  C2014 05 07.34247 15 34 22.51 +15 17 16.5          20.0 VqEJ065G96
         K14J24X KC2014 05 07.94346215 52 37.69 +17 49 48.7          20.3 VqEJ065I93
         K14J24X KC2014 05 07.94986915 52 47.81 +17 51 18.5          20.4 VqEJ065I93
    
    Observer details:
    G96 Mt. Lemmon Survey.  Observers A. D. Grauer, R. A. Kowalski.  Measurers
        E. J. Christensen, A. R. Gibbs, A. D. Grauer, R. E. Hill, J. A. Johnson,
        R. A. Kowalski, S. M. Larson, R. J. Sanders, F. C. Shelly.  1.5-m
        reflector + CCD.
    I93 St Pardon de Conques.  Observer F. Losse.  0.40-m f/3.7 reflector + CCD.
    
    Orbital elements:
    2014 JX24                                                Earth MOID = 0.0162 AU
    Epoch 2014 May 23.0 TT = JDT 2456800.5                  MPC
    M  12.56070              (2000.0)            P               Q
    n   0.42185734     Peri.  347.42184     -0.85777415     +0.49272721
    a   1.7607282      Node   223.12320     -0.45110717     -0.85815760
    e   0.4222105      Incl.   12.36989     -0.24642612     -0.14417150
    P   2.34           H   26.9           G   0.15           U   7
    Residuals in seconds of arc
    140506 G96  0.4-  0.1-    140506 G96  0.3-  0.1-    140506 G96  0.4+  0.7-
    140506 G96  1.3+  0.8+    140506 G96  0.3-  0.5+    140507 G96  0.2-  0.1-
    140506 G96  0.1-  0.4-    140506 G96  0.8-  0.9+    140507 G96  0.6+  0.0
    140506 G96  0.2-  0.4-    140506 G96  0.8+  0.2+    140507 G96  0.1+  0.2-
    140506 G96  0.2-  0.1-    140506 G96  0.1+  0.3+    140507 G96  0.1+  0.5-
    140506 G96  0.3+  0.3-    140506 G96  0.1+  0.3-    140507 I93  0.1-  0.1+
    140506 G96  0.6-  0.0     140506 G96  0.1-  0.0     140507 I93  0.3-  0.4+
    140506 G96  0.3+  0.2+    140506 G96  0.4-  0.5-
    
    Ephemeris:
    2014 JX24                a,e,i = 1.76, 0.42, 12                  q = 1.0173
    Date    TT    R. A. (2000) Decl.     Delta      r     Elong.  Phase     V
    2014 04 07    07 29 45.1 -34 45 47   0.1381  1.0325    99.4    73.0    25.2
    ...
    2014 04 22    08 07 15.8 -34 53 27   0.06577 1.0172    98.8    77.6    23.7
    ...
    2014 04 30    09 55 34.2 -31 19 13   0.02834 1.0200   116.1    62.5    21.4
    ...
    2014 05 06    14 43 02.2 +07 14 16   0.02003 1.0271   156.3    23.3    19.6
    2014 05 07    15 22 47.5 +13 35 18   0.02293 1.0287   149.0    30.4    20.1
    2014 05 08    15 54 01.1 +18 05 06   0.02656 1.0303   142.4    36.7    20.6
    ...
    2014 05 14    17 22 37.7 +27 42 14   0.05417 1.0428   125.4    52.2    22.6
    ...
    2014 05 22    17 56 17.6 +29 44 43   0.09453 1.0652   121.9    53.7    23.9
    ...
    2014 06 06    18 10 52.9 +28 49 11   0.1714  1.1227   125.4    47.4    25.1
    
    A. U. Tomatic                (C) Copyright 2014 MPC           M.P.E.C. 2014-J65
    

    Read MPEC 2014-J64 Read MPEC 2014-J66


    MPEC number:

    Enter an MPEC number in one of the following forms:

    • 1997-B01 (the full form)
    • J97B01 (the packed version of the full form)
    • B01 (the abbreviated form)